Flag for U.S.A. Weather past 2 weeks in Metlakatla, Alaska, U.S.A.

Now
41 °F

Mostly cloudy.


Feels Like: 31 °F
Forecast: 39 / 43 °F
Wind: 22 mph from East

Location: Metlakatla - Metlakatla Seaplane Base

Current Time: Dec 18, 2014 at 3:27:54 PM

Latest Report: Dec 18, 2014 at 2:56 PM


Visibility: 10 mi

Pressure: 29.36 "Hg

Humidity: 76%

Dew point: 34 °F

Location of MetlakatlaLocation

Historic Weather in Metlakatla — Graph

°F

Metlakatla temperature yesterday

Maximum temperature yesterday: 43 °F (at 1:16 AM)
Minimum temperature yesterday: 39 °F (at 6:16 AM)
Average temperature yesterday: 41 °F

Past Weeks' High & Low Weather Summary

 TemperatureHumidityPressure
High55 °F (Dec 9, 10:56 AM)93% (Dec 3, 7:16 PM)30.08 "Hg (Dec 3, 7:16 PM)
Low37 °F (Dec 4, 12:16 AM)28% (Dec 14, 11:16 PM)28.69 "Hg (Dec 10, 3:36 PM)
Average46 °F70%29.59 "Hg
* Reported Dec 3 2:16 PM — Dec 18 2:36 PM, Metlakatla, Weather by CustomWeather, © 2014

Note: Actual official high and low records may vary slightly from our data, if they occured in-between our weather recording intervals... More about our weather records

Advertising

Metlakatla weather history for previous 24 hours

 ConditionsComfort  
Time TempWeatherWind HumidityBarometerVisibility
2:36 PM
Dec 18
41 °FMostly cloudy.25 mph76%29.37 "Hg10 mi
2:16 PM41 °FMostly cloudy.25 mph76%29.37 "Hg9 mi
1:56 PM39 °FMostly cloudy.30 mph81%29.37 "Hg9 mi
1:36 PM39 °FMostly cloudy.30 mph81%29.38 "Hg7 mi
1:16 PM39 °FOvercast.26 mph81%29.38 "Hg8 mi
12:56 PM41 °FMostly cloudy.25 mph76%29.39 "Hg9 mi
12:36 PM41 °FMore clouds than sun.26 mph76%29.39 "Hg10 mi
12:16 PM41 °FMore clouds than sun.23 mph76%29.41 "Hg9 mi
11:56 AM43 °FMore clouds than sun.30 mph66%29.42 "Hg8 mi
11:36 AM43 °FOvercast.25 mph61%29.43 "Hg10 mi
11:16 AM43 °FMostly cloudy.24 mph61%29.44 "Hg10 mi
10:56 AM43 °FOvercast.21 mph61%29.45 "Hg10 mi
10:36 AM43 °FMostly cloudy.24 mph61%29.46 "Hg10 mi
10:16 AM43 °FOvercast.18 mph61%29.48 "Hg10 mi
9:56 AM45 °FMore clouds than sun.22 mph53%29.49 "Hg10 mi
9:36 AM43 °FMore clouds than sun.14 mph61%29.49 "Hg10 mi
9:16 AM43 °FMore clouds than sun.20 mph61%29.49 "Hg10 mi
8:56 AM43 °FMostly cloudy.13 mph61%29.50 "Hg10 mi
8:36 AM43 °FOvercast.18 mph66%29.50 "Hg10 mi
8:16 AM43 °FMostly cloudy.16 mph71%29.50 "Hg10 mi
7:56 AM43 °FMostly cloudy.17 mph61%29.51 "Hg9 mi
7:36 AM43 °FOvercast.13 mph61%29.51 "Hg10 mi
7:16 AM43 °FOvercast.14 mph61%29.51 "Hg10 mi
6:56 AM43 °FMostly cloudy.18 mph61%29.51 "Hg10 mi
6:36 AM45 °FPartly cloudy.15 mph57%29.52 "Hg10 mi
6:16 AM43 °FPartly cloudy.20 mph61%29.53 "Hg10 mi
5:56 AM43 °FOvercast.22 mph61%29.54 "Hg10 mi
5:36 AM41 °FMostly cloudy.14 mph66%29.56 "Hg10 mi
5:16 AM43 °FPartly cloudy.21 mph61%29.56 "Hg10 mi
4:56 AM43 °FOvercast.20 mph61%29.56 "Hg10 mi
4:36 AM43 °FMostly cloudy.16 mph61%29.58 "Hg10 mi
4:16 AM43 °FPartly cloudy.20 mph61%29.58 "Hg10 mi
3:56 AM39 °FMostly cloudy.14 mph75%29.60 "Hg10 mi
3:36 AM41 °FMostly cloudy.17 mph66%29.61 "Hg10 mi
3:16 AM41 °FOvercast.16 mph66%29.62 "Hg10 mi
2:36 AM41 °FMostly cloudy.10 mph61%29.63 "Hg10 mi
2:16 AM43 °FMostly cloudy.10 mph57%29.63 "Hg10 mi
1:36 AM43 °FPartly cloudy.16 mph53%29.64 "Hg10 mi
1:16 AM43 °FPartly cloudy.18 mph57%29.64 "Hg10 mi
12:36 AM43 °FMostly cloudy.17 mph53%29.66 "Hg10 mi
12:16 AM43 °FOvercast.21 mph57%29.66 "Hg10 mi
11:56 PM
Dec 17
43 °FOvercast.14 mph57%29.67 "Hg10 mi
11:36 PM43 °FOvercast.18 mph57%29.68 "Hg10 mi
11:16 PM43 °FMostly cloudy.17 mph57%29.69 "Hg10 mi
10:56 PM41 °FMostly cloudy.16 mph66%29.70 "Hg10 mi
10:36 PM39 °FMostly cloudy.13 mph70%29.71 "Hg10 mi
10:16 PM41 °FMostly cloudy.16 mph61%29.72 "Hg10 mi
9:56 PM41 °FMostly cloudy.17 mph61%29.72 "Hg10 mi
9:36 PM43 °FOvercast.14 mph57%29.72 "Hg10 mi
9:16 PM41 °FPartly cloudy.15 mph66%29.73 "Hg10 mi
8:56 PM39 °FOvercast.14 mph70%29.74 "Hg10 mi
8:36 PM39 °FMostly cloudy.15 mph75%29.74 "Hg10 mi
8:16 PM39 °FMostly cloudy.9 mph75%29.75 "Hg10 mi
7:36 PM41 °FMostly cloudy.14 mph66%29.76 "Hg10 mi
7:16 PM41 °FMostly cloudy.16 mph66%29.75 "Hg10 mi
6:36 PM41 °FMostly cloudy.14 mph66%29.76 "Hg10 mi
6:16 PM39 °FPassing clouds.14 mph70%29.76 "Hg10 mi
5:56 PM41 °FClear.10 mph61%29.76 "Hg10 mi
5:36 PM41 °FClear.10 mph61%29.76 "Hg10 mi
5:16 PM41 °FClear.10 mph61%29.76 "Hg10 mi
4:56 PM43 °FClear.6 mph57%29.77 "Hg10 mi
4:36 PM41 °FClear.6 mph66%29.77 "Hg10 mi
3:56 PM41 °FPassing clouds.No wind66%29.78 "Hg10 mi
3:36 PM41 °FSunny.10 mph66%29.79 "Hg10 mi
3:16 PM41 °FSunny.10 mph66%29.79 "Hg10 mi
Weather by CustomWeather, © 2014

See weather overviewHow to use our weather pages